DW6162 Weather Reports


Display with metric or nautical units.
time (UTC)temp
F
wind
direction
speed
MPH
gust
MPH
rain 1hr
in
rain 24hr
in
rain mn
in
humidity
%
barometer
mb
20260502220105 41 316 1.0 6.0 0.00 0.05 0.00 65 1014.4
20260502215744 41 324 2.0 5.0 0.00 0.07 0.00 65 1011.9
20260502214843 41 333 2.0 6.0 0.00 0.07 0.00 63 1011.8
20260502214506 41 333 0.0 4.0 0.00 0.07 0.00 64 1014.4
20260502213943 41 318 2.0 4.0 0.00 0.07 0.00 63 1011.8
20260502213105 41 11 1.0 5.0 0.00 0.07 0.00 63 1014.3
20260502213043 41 332 2.0 5.0 0.00 0.07 0.00 63 1011.7
20260502212144 41 326 2.0 5.0 0.00 0.08 0.00 65 1011.8
20260502211507 41 316 2.0 9.0 0.00 0.07 0.00 67 1014.3
20260502211243 41 340 4.0 9.0 0.00 0.08 0.00 67 1011.7
20260502210343 42 345 3.0 5.0 0.00 0.08 0.00 68 1011.7
20260502210117 41 328 2.0 7.0 0.00 0.07 0.00 68 1014.3
20260502205443 42 335 3.0 8.0 0.00 0.09 0.00 66 1011.7
20260502204544 41 329 3.0 5.0 0.00 0.10 0.00 67 1011.7
20260502204504 41 333 1.0 5.0 0.00 0.09 0.00 67 1014.3
20260502203643 42 329 3.0 9.0 0.00 0.11 0.00 71 1011.9
20260502203107 41 262 3.0 8.0 0.00 0.09 0.00 71 1014.4
20260502202745 41 336 2.0 9.0 0.00 0.11 0.00 72 1011.9
20260502201505 40 346 2.0 6.0 0.00 0.09 0.00 74 1014.6
20260502200104 40 342 2.0 5.0 0.00 0.09 0.00 71 1014.8
20260502194505 41 225 1.0 6.0 0.00 0.13 0.00 71 1014.9
20260502194244 41 334 2.0 6.0 0.00 0.13 0.00 72 1012.4
20260502193343 41 330 2.0 5.0 0.00 0.14 0.00 72 1012.4
20260502193109 41 319 1.0 5.0 0.00 0.13 0.00 71 1015.0
20260502192443 41 348 2.0 6.0 0.00 0.14 0.00 72 1012.5
20260502191543 41 347 1.0 5.0 0.00 0.14 0.00 70 1012.7
20260502191505 40 61 1.0 5.0 0.00 0.13 0.00 70 1015.2
20260502190644 41 25 2.0 4.0 0.00 0.15 0.00 72 1012.7
20260502190111 40 5 1.0 5.0 0.00 0.13 0.00 70 1015.3
20260502185744 41 356 1.0 5.0 0.00 0.16 0.00 70 1012.7
20260502184843 41 357 1.0 4.0 0.00 0.17 0.00 70 1012.7
20260502184510 40 104 1.0 4.0 0.00 0.16 0.00 69 1015.2
20260502183943 41 331 2.0 5.0 0.00 0.18 0.00 68 1012.6
20260502183112 41 343 3.0 5.0 0.00 0.16 0.00 66 1015.1
20260502181506 41 340 0.0 5.0 0.00 0.16 0.00 67 1015.0
20260502163122 44 338 2.0 8.0 0.00 0.21 0.00 63 1012.6
20260502163109 43 162 1.0 7.0 0.00 0.21 0.00 61 1015.1
20260502162223 43 158 3.0 7.0 0.00 0.21 0.00 64 1012.7
20260502161505 42 333 3.0 7.0 0.00 0.21 0.00 67 1015.3
20260502161322 42 326 2.0 7.0 0.00 0.21 0.00 66 1012.7
20260502160422 42 331 2.0 7.0 0.00 0.21 0.00 68 1012.8
20260502151922 40 331 3.0 6.0 0.00 0.21 0.00 71 1012.8
20260502151502 39 285 1.0 6.0 0.00 0.21 0.00 71 1015.4
20260502151022 40 318 1.0 5.0 0.00 0.21 0.00 70 1012.9
20260502150122 40 320 3.0 7.0 0.00 0.21 0.00 70 1012.9
20260502150103 39 27 3.0 7.0 0.00 0.21 0.00 70 1015.4
20260502130422 37 326 3.0 7.0 0.00 0.21 0.00 80 1013.3
20260502130112 36 323 1.0 7.0 0.00 0.21 0.00 80 1015.9
20260502123102 35 354 0.0 4.0 0.00 0.21 0.00 85 1016.1
20260502121921 35 344 2.0 5.0 0.00 0.21 0.00 87 1013.5
20260502121502 34 316 2.0 5.0 0.00 0.21 0.00 87 1016.0
20260502121022 34 326 1.0 4.0 0.00 0.21 0.00 88 1013.4
20260502120122 34 307 1.0 3.0 0.00 0.21 0.00 90 1013.3
20260502120104 33 316 0.0 3.0 0.00 0.21 0.00 90 1015.9
20260502114502 32 281 1.0 4.0 0.00 0.21 0.00 92 1015.9
20260502113422 32 296 1.0 4.0 0.00 0.21 0.00 93 1013.3
20260502113103 32 290 0.0 4.0 0.00 0.21 0.00 93 1016.0
20260502112522 32 314 1.0 3.0 0.00 0.21 0.00 94 1013.3
20260502111622 31 320 1.0 2.0 0.00 0.21 0.00 95 1013.4
20260502111505 31 306 1.0 2.0 0.00 0.21 0.00 95 1016.0
20260502110722 31 308 0.0 2.0 0.00 0.21 0.00 95 1013.3
20260502105822 30 280 0.0 2.0 0.00 0.21 0.00 96 1013.4
20260502104922 30 0 0.0 0.0 0.00 0.21 0.00 96 1013.3
20260502104502 30 273 0.0 0.0 0.00 0.21 0.00 96 1015.9
20260502104022 30 0 0.0 0.0 0.00 0.21 0.00 95 1013.2
20260502103122 30 0 0.0 0.0 0.00 0.21 0.00 95 1013.2
20260502103106 29 273 0.0 0.0 0.00 0.21 0.00 95 1015.8
20260502102222 30 0 0.0 0.0 0.00 0.21 0.00 94 1013.0
20260502101503 30 273 0.0 0.0 0.00 0.21 0.00 94 1015.5
20260502101322 30 0 0.0 0.0 0.00 0.21 0.00 94 1012.9
20260502100423 31 0 0.0 0.0 0.00 0.21 0.00 94 1012.8
20260502091504 31 289 0.0 3.0 0.00 0.21 0.00 94 1015.2
20260502091022 31 309 1.0 5.0 0.00 0.21 0.00 94 1012.5
20260502090123 32 253 0.0 1.0 0.00 0.21 0.00 94 1012.4
20260502090115 31 253 0.0 1.0 0.00 0.21 0.00 94 1015.0
20260502071502 34 321 2.0 9.0 0.00 0.21 0.00 94 1014.5
20260502071321 34 317 1.0 3.0 0.00 0.21 0.00 94 1012.0
20260502070422 34 314 1.0 4.0 0.00 0.21 0.00 94 1011.9
20260502070122 34 333 0.0 2.0 0.00 0.21 0.00 94 1014.4
20260502065521 34 298 0.0 3.0 0.00 0.21 0.00 94 1011.8
20260502064622 35 303 1.0 4.0 0.00 0.21 0.00 93 1011.8
20260502064502 34 285 1.0 4.0 0.00 0.21 0.00 93 1014.4
20260502063721 35 313 1.0 4.0 0.00 0.21 0.00 93 1011.7
20260502063103 34 352 0.0 3.0 0.00 0.21 0.00 93 1014.3
20260502062822 35 302 1.0 3.0 0.00 0.21 0.00 93 1011.8
20260502061921 35 347 0.0 2.0 0.00 0.21 0.00 93 1011.9
20260502061502 34 291 0.0 2.0 0.00 0.21 0.00 93 1014.3
20260502061023 35 355 1.0 6.0 0.00 0.21 0.00 93 1011.9
20260502060121 35 7 1.0 6.0 0.00 0.21 0.00 94 1012.0
20260502055221 35 321 1.0 5.0 0.00 0.21 0.00 94 1012.1
20260502054502 34 357 0.0 3.0 0.00 0.21 0.00 94 1014.6
20260502054321 35 323 1.0 5.0 0.00 0.21 0.00 94 1012.2
20260502053133 34 319 1.0 6.0 0.00 0.21 0.00 94 1014.7
20260502052521 35 315 1.0 3.0 0.00 0.21 0.00 94 1012.2
20260502051621 35 326 0.0 2.0 0.00 0.21 0.00 93 1012.1
20260502051504 34 336 0.0 2.0 0.00 0.21 0.00 93 1014.6
20260502050109 34 60 0.0 6.0 0.00 0.21 0.00 93 1014.6
20260502045822 35 309 1.0 6.0 0.00 0.21 0.00 93 1012.1
20260502044921 35 327 2.0 6.0 0.00 0.21 0.00 93 1011.9
20260502044503 34 6 2.0 4.0 0.00 0.21 0.00 93 1014.2
20260502044021 35 305 1.0 3.0 0.00 0.21 0.00 93 1011.8
20260502043113 34 248 0.0 4.0 0.00 0.21 0.00 94 1014.2
20260502042222 35 326 2.0 5.0 0.00 0.21 0.00 94 1011.7
20260502041503 35 330 1.0 5.0 0.01 0.21 0.00 94 1014.0
20260502041322 35 329 2.0 5.0 0.01 0.21 0.00 93 1011.7
20260502040423 35 323 2.0 4.0 0.01 0.21 0.00 94 1011.7
20260502034621 36 328 4.0 9.0 0.01 0.21 0.21 93 1011.7
20260502034507 35 320 3.0 8.0 0.01 0.21 0.21 93 1014.1
20260502033109 35 321 3.0 9.0 0.01 0.21 0.21 94 1014.2
20260502032821 36 322 5.0 11.0 0.01 0.21 0.21 94 1011.8
20260502031922 37 325 4.0 9.0 0.00 0.20 0.20 95 1011.7
20260502031502 37 321 4.0 9.0 0.00 0.20 0.20 95 1014.0
20260502031021 37 326 4.0 11.0 0.00 0.20 0.20 95 1011.7
20260502025221 37 304 1.0 4.0 0.00 0.20 0.20 96 1011.7
20260502024503 37 276 0.0 4.0 0.00 0.20 0.20 96 1014.1
20260502024321 37 321 0.0 4.0 0.00 0.20 0.20 96 1011.7
20260502023421 37 149 0.0 1.0 0.00 0.20 0.20 96 1011.7
20260502023102 37 143 0.0 1.0 0.00 0.20 0.20 96 1014.2
20260502022521 37 2 0.0 1.0 0.00 0.20 0.20 96 1011.8
20260502021621 37 270 0.0 1.0 0.00 0.20 0.20 96 1011.6
20260502021502 37 281 0.0 1.0 0.00 0.20 0.20 96 1014.0
20260502020721 37 0 0.0 0.0 0.00 0.20 0.20 96 1011.6
20260502020112 37 285 0.0 2.0 0.00 0.20 0.20 96 1013.9
20260502015821 38 306 0.0 2.0 0.00 0.20 0.20 96 1011.5
20260502014921 38 357 0.0 2.0 0.00 0.20 0.20 96 1011.6
20260502014508 37 1 0.0 1.0 0.00 0.20 0.20 96 1013.9
20260502014021 38 1 0.0 1.0 0.00 0.20 0.20 96 1011.6
20260502013121 38 348 0.0 1.0 0.00 0.20 0.20 96 1011.4
20260502013104 38 1 0.0 1.0 0.00 0.20 0.20 96 1013.6
20260502012221 38 338 0.0 2.0 0.00 0.20 0.20 96 1011.3
20260502011504 38 333 0.0 1.0 0.00 0.20 0.20 96 1013.5
20260502011321 38 343 0.0 1.0 0.01 0.20 0.20 96 1011.3
20260502010421 38 5 0.0 2.0 0.01 0.20 0.20 96 1011.0
20260502010105 38 11 0.0 2.0 0.01 0.20 0.20 96 1013.3
20260502005522 38 309 0.0 2.0 0.02 0.20 0.20 96 1011.0
20260502004621 38 279 0.0 1.0 0.02 0.20 0.20 96 1010.9
20260502004609 38 278 0.0 1.0 0.02 0.20 0.20 96 1013.2
20260502003721 38 329 0.0 1.0 0.03 0.20 0.20 96 1010.8
20260502003003 38 330 0.0 1.0 0.03 0.20 0.20 96 1013.1
20260502002821 38 335 0.0 2.0 0.03 0.20 0.20 96 1010.8
20260502001921 38 340 1.0 5.0 0.03 0.20 0.20 96 1010.7
20260502001604 38 23 0.0 5.0 0.03 0.20 0.20 96 1013.1
20260502001021 39 342 0.0 3.0 0.03 0.19 0.19 96 1010.8
20260502000121 39 15 0.0 5.0 0.03 0.19 0.19 96 1010.8
20260502000002 39 341 1.0 4.0 0.03 0.19 0.19 96 1013.0
20260501235221 39 163 0.0 2.0 0.02 0.18 0.18 96 1010.6
20260501234602 39 264 0.0 1.0 0.02 0.19 0.18 96 1012.8
20260501234321 39 205 0.0 2.0 0.03 0.18 0.18 96 1010.6
20260501233002 39 128 0.0 1.0 0.02 0.18 0.17 96 1012.8
20260501232521 40 136 0.0 1.0 0.03 0.17 0.17 96 1010.4
20260501231630 39 141 0.0 1.0 0.03 0.18 0.17 95 1012.7
20260501231621 40 170 0.0 1.0 0.03 0.17 0.17 95 1010.4
20260501230721 40 0 0.0 0.0 0.02 0.16 0.16 95 1010.3
20260501230003 39 160 0.0 1.0 0.02 0.17 0.16 95 1012.8
20260501225821 40 0 0.0 0.0 0.02 0.17 0.16 95 1010.4
20260501224921 40 359 0.0 2.0 0.02 0.18 0.16 95 1010.5
20260501224602 39 340 0.0 2.0 0.02 0.18 0.16 95 1012.8
20260501224021 40 110 0.0 1.0 0.01 0.17 0.15 95 1010.5
20260501223121 40 107 0.0 1.0 0.02 0.17 0.15 95 1010.5
20260501223003 40 107 0.0 1.0 0.02 0.17 0.15 95 1012.8
20260501222221 40 145 0.0 1.0 0.01 0.16 0.14 94 1010.5
20260501221602 40 149 0.0 2.0 0.01 0.16 0.14 94 1012.8
20260501221321 40 139 0.0 2.0 0.01 0.16 0.14 94 1010.6